Flag for U.S.A. Weather past 2 weeks in Inverness, Florida, U.S.A.

Now
70 °F

Fog.


Feels Like: 70 °F
Forecast: 68 / 90 °F
Wind: No wind

Location: The Villages

Current Time: May 30, 2015 at 7:46:52 AM

Latest Report: May 30, 2015 at 7:15 AM


Visibility: 1 mi

Pressure: 30.01 "Hg

Humidity: 100%

Dew point: 70 °F

Location of InvernessLocation

Historic Weather in Inverness — Graph

°F

Inverness temperature yesterday

Maximum temperature yesterday: 90 °F (at 2:15 PM)
Minimum temperature yesterday: 66 °F (at 4:15 AM)
Average temperature yesterday: 77 °F

Past Weeks' High & Low Weather Summary

 TemperatureHumidityPressure
High93 °F (May 21, 3:55 PM)100% (May 15, 6:15 AM)30.17 "Hg (May 15, 6:15 AM)
Low66 °F (May 16, 6:15 AM)33% (May 28, 1:55 PM)29.82 "Hg (May 21, 5:15 PM)
Average79 °F80%30.04 "Hg
* Reported May 15 6:15 AM — May 30 6:15 AM, Inverness, Weather by CustomWeather, © 2015

Note: Actual official high and low records may vary slightly from our data, if they occured in-between our weather recording intervals... More about our weather records

Advertising

Inverness weather history for previous 24 hours

 ConditionsComfort  
Time TempWeatherWind HumidityBarometerVisibility
6:15 AM
Sat, May 30
70 °FFog.No wind100%29.99 "Hg5 mi
5:55 AM70 °FFog.No wind100%29.99 "Hg6 mi
5:35 AM68 °FFog.No wind100%29.98 "Hg4 mi
5:15 AM70 °FMild.No wind100%29.98 "Hg9 mi
4:55 AM70 °FMild.No wind100%29.98 "Hg9 mi
4:35 AM72 °FMild.No wind100%29.98 "Hg10 mi
4:15 AM72 °FMild.No wind100%29.97 "Hg10 mi
3:55 AM72 °FMild.No wind100%29.97 "Hg10 mi
3:35 AM72 °FMild.No wind100%29.97 "Hg7 mi
3:15 AM70 °FMild.No wind100%29.98 "Hg10 mi
2:55 AM70 °FMild.No wind100%29.98 "Hg10 mi
2:35 AM70 °FMild.No wind100%29.99 "Hg7 mi
2:15 AM70 °FMild.No wind100%29.99 "Hg10 mi
1:55 AM72 °FMild.No wind94%29.99 "Hg7 mi
1:35 AM72 °FMild.No wind94%30.00 "Hg7 mi
1:15 AM72 °FMild.3 mph94%30.00 "Hg10 mi
12:55 AM72 °FMild.No wind94%30.01 "Hg10 mi
12:35 AM72 °FMild.No wind94%30.01 "Hg10 mi
12:15 AM73 °FMild.No wind89%30.01 "Hg10 mi
11:55 PM
Fri, May 29
73 °FMild.No wind83%30.01 "HgN/A
11:15 PM75 °FMild.3 mph78%30.02 "Hg10 mi
10:55 PM75 °FMild.No wind78%30.02 "Hg8 mi
10:35 PM75 °FMild.3 mph78%30.02 "Hg10 mi
10:15 PM77 °FWarm.3 mph74%30.02 "Hg10 mi
9:55 PM77 °FWarm.7 mph74%30.01 "Hg10 mi
9:35 PM77 °FWarm.6 mph74%30.00 "Hg8 mi
9:15 PM77 °FWarm.6 mph74%30.00 "Hg8 mi
8:55 PM79 °FWarm.5 mph70%29.99 "Hg10 mi
8:35 PM79 °FWarm.7 mph70%29.99 "Hg7 mi
8:15 PM81 °FHaze.9 mph66%29.98 "Hg6 mi
7:55 PM81 °FWarm.10 mph66%29.98 "Hg10 mi
7:35 PM82 °FWarm.10 mph62%29.97 "Hg10 mi
7:15 PM84 °FWarm.9 mph58%29.97 "Hg7 mi
6:55 PM84 °FWarm.12 mph58%29.96 "Hg7 mi
6:15 PM86 °FWarm.10 mph52%29.95 "Hg7 mi
5:55 PM88 °FWarm.12 mph49%29.95 "Hg10 mi
5:15 PM86 °FWarm.10 mph49%29.96 "Hg8 mi
4:35 PM86 °FWarm.6 mph49%29.98 "Hg10 mi
4:15 PM86 °FWarm.6 mph49%29.98 "Hg8 mi
3:55 PM86 °FWarm.5 mph49%29.98 "Hg10 mi
3:15 PM86 °FWarm.7 mph49%30.00 "HgN/A
2:55 PM86 °FWarm.6 mph49%30.00 "Hg9 mi
2:35 PM88 °FWarm.9 mph46%30.01 "Hg10 mi
2:15 PM90 °FHot.8 mph46%30.02 "Hg10 mi
1:55 PM86 °FWarm.8 mph49%30.03 "Hg7 mi
1:35 PM88 °FWarm.8 mph46%30.02 "Hg10 mi
1:15 PM88 °FWarm.7 mph46%30.03 "Hg10 mi
12:55 PM86 °FWarm.7 mph49%30.04 "Hg9 mi
12:35 PM86 °FWarm.10 mph49%30.04 "Hg10 mi
12:15 PM84 °FWarm.10 mph51%30.04 "Hg10 mi
11:55 AM84 °FWarm.8 mph51%30.04 "Hg7 mi
11:35 AM84 °FWarm.9 mph55%30.04 "Hg7 mi
11:15 AM82 °FWarm.9 mph55%30.04 "Hg10 mi
10:55 AM81 °FWarm.5 mph62%30.04 "Hg10 mi
10:35 AM81 °FWarm.6 mph62%30.04 "Hg8 mi
10:15 AM81 °FWarm.6 mph62%30.04 "Hg9 mi
9:55 AM79 °FWarm.5 mph65%30.04 "Hg10 mi
9:35 AM79 °FWarm.6 mph65%30.03 "Hg9 mi
9:15 AM79 °FWarm.6 mph65%30.03 "Hg7 mi
8:55 AM77 °FWarm.6 mph69%30.02 "Hg8 mi
8:35 AM75 °FMild.6 mph74%30.02 "Hg7 mi
8:15 AM73 °FMild.5 mph78%30.02 "Hg10 mi
7:55 AM72 °FMild.N/A83%30.01 "Hg10 mi
7:15 AM68 °FMild.No wind94%30.00 "Hg10 mi
Weather by CustomWeather, © 2015

See weather overviewHow to use our weather pages